• In Deutschland
  • Länderverzeichnis
  • Für 7 Tage
  • Wassertemperatur
  • Satellitenkarten
  • Wetterkarte
  • Widgets
  • user-avatar
    Anmelden

    Stündliche Wetter Bad Wiessee

    Heute, 26 April, Donnerstag

    Zeit Temperatur Niederschläge Wind Luftdruck Luftfeuchtigkeit
    00:00 +10°C° 0,5 mm 1 m/S 661 mmHg 95%
    01:00 +10°C° 0,5 mm 1 m/S 661 mmHg 95%
    02:00 +9°C° 1,1 mm 2 m/S 661 mmHg 96%
    03:00 +8°C° 1,1 mm 2 m/S 661 mmHg 96%
    04:00 +8°C° 1,1 mm 2 m/S 661 mmHg 96%
    05:00 +8°C° 1,1 mm 2 m/S 661 mmHg 96%
    06:00 +7°C° 1,1 mm 2 m/S 661 mmHg 96%
    07:00 +7°C° 1,1 mm 2 m/S 661 mmHg 96%
    08:00 +6°C° 1,1 mm 2 m/S 661 mmHg 95%
    09:00 +6°C° 1,1 mm 2 m/S 661 mmHg 94%
    10:00 +5°C° 1,1 mm 2 m/S 662 mmHg 93%
    11:00 +6°C° 0,4 mm 2 m/S 662 mmHg 91%
    12:00 +6°C° 0,4 mm 2 m/S 662 mmHg 88%
    13:00 +6°C° 0,4 mm 2 m/S 662 mmHg 85%
    14:00 +7°C° 0,1 mm 2 m/S 662 mmHg 82%
    15:00 +8°C° 0,1 mm 2 m/S 662 mmHg 79%
    16:00 +8°C° 0,1 mm 2 m/S 662 mmHg 76%
    17:00 +8°C° 0,1 mm 2 m/S 662 mmHg 79%
    18:00 +8°C° 0,1 mm 1 m/S 662 mmHg 83%
    19:00 +7°C° 0,1 mm 1 m/S 662 mmHg 86%
    20:00 +6°C° 0 mm 1 m/S 662 mmHg 87%
    21:00 +6°C° 0 mm 1 m/S 663 mmHg 88%
    22:00 +4°C° 0 mm 0 m/S 663 mmHg 89%
    23:00 +4°C° 0 mm 0 m/S 663 mmHg 90%

    Morgen, 27 April, Freitag

    Zeit Temperatur Niederschläge Wind Luftdruck Luftfeuchtigkeit
    00:00 +4°C° 0 mm 1 m/S 662 mmHg 91%
    01:00 +4°C° 0 mm 1 m/S 662 mmHg 92%
    02:00 +4°C° 0 mm 1 m/S 662 mmHg 92%
    03:00 +3°C° 0 mm 1 m/S 661 mmHg 92%
    04:00 +3°C° 0 mm 1 m/S 661 mmHg 93%
    05:00 +4°C° 0 mm 1 m/S 660 mmHg 90%
    06:00 +5°C° 0 mm 1 m/S 660 mmHg 87%
    07:00 +6°C° 0 mm 1 m/S 660 mmHg 84%
    08:00 +8°C° 0 mm 2 m/S 661 mmHg 75%
    09:00 +12°C° 0 mm 2 m/S 661 mmHg 66%
    10:00 +15°C° 0 mm 2 m/S 661 mmHg 57%
    11:00 +16°C° 0 mm 2 m/S 661 mmHg 54%
    12:00 +18°C° 0 mm 2 m/S 661 mmHg 51%
    13:00 +19°C° 0 mm 2 m/S 661 mmHg 49%
    14:00 +19°C° 0,1 mm 2 m/S 661 mmHg 52%
    15:00 +18°C° 0,1 mm 2 m/S 660 mmHg 55%
    16:00 +18°C° 0,1 mm 2 m/S 660 mmHg 58%
    17:00 +16°C° 0,3 mm 1 m/S 660 mmHg 67%
    18:00 +14°C° 0,3 mm 1 m/S 659 mmHg 76%
    19:00 +12°C° 0,3 mm 1 m/S 659 mmHg 85%
    20:00 +11°C° 0,4 mm 1 m/S 659 mmHg 87%
    21:00 +11°C° 0,4 mm 1 m/S 660 mmHg 89%
    22:00 +9°C° 0,4 mm 2 m/S 660 mmHg 91%
    23:00 +10°C° 0,1 mm 1 m/S 660 mmHg 91%

    übermorgen, 28 April, Samstag

    Zeit Temperatur Niederschläge Wind Luftdruck Luftfeuchtigkeit
    00:00 +9°C° 0,1 mm 1 m/S 660 mmHg 91%
    01:00 +9°C° 0,1 mm 1 m/S 660 mmHg 91%
    02:00 +9°C° 0 mm 1 m/S 660 mmHg 91%
    03:00 +9°C° 0 mm 1 m/S 660 mmHg 91%
    04:00 +9°C° 0 mm 1 m/S 660 mmHg 91%
    05:00 +9°C° 0,1 mm 1 m/S 660 mmHg 90%
    06:00 +9°C° 0,1 mm 1 m/S 661 mmHg 89%
    07:00 +10°C° 0,1 mm 1 m/S 661 mmHg 88%
    08:00 +10°C° 0,1 mm 1 m/S 661 mmHg 85%
    09:00 +11°C° 0,1 mm 1 m/S 661 mmHg 82%
    10:00 +12°C° 0,1 mm 2 m/S 661 mmHg 79%
    11:00 +12°C° 0 mm 2 m/S 661 mmHg 76%
    12:00 +13°C° 0 mm 2 m/S 661 mmHg 72%
    13:00 +14°C° 0 mm 2 m/S 661 mmHg 69%
    14:00 +14°C° 0 mm 2 m/S 661 mmHg 70%
    15:00 +14°C° 0 mm 2 m/S 660 mmHg 70%
    16:00 +14°C° 0 mm 2 m/S 660 mmHg 71%
    17:00 +13°C° 0 mm 2 m/S 660 mmHg 77%
    18:00 +12°C° 0 mm 2 m/S 660 mmHg 83%
    19:00 +11°C° 0 mm 1 m/S 659 mmHg 89%
    20:00 +10°C° 0 mm 1 m/S 659 mmHg 91%
    21:00 +9°C° 0 mm 1 m/S 659 mmHg 92%
    22:00 +9°C° 0 mm 1 m/S 659 mmHg 94%
    23:00 +8°C° 0 mm 1 m/S 659 mmHg 93%

    29 April, Sonntag

    Zeit Temperatur Niederschläge Wind Luftdruck Luftfeuchtigkeit
    00:00 +8°C° 0 mm 1 m/S 659 mmHg 93%
    01:00 +7°C° 0 mm 1 m/S 658 mmHg 92%
    02:00 +7°C° 0 mm 1 m/S 658 mmHg 91%
    03:00 +7°C° 0 mm 1 m/S 657 mmHg 90%
    04:00 +6°C° 0 mm 2 m/S 657 mmHg 90%
    05:00 +7°C° 0 mm 2 m/S 657 mmHg 86%
    06:00 +8°C° 0 mm 2 m/S 657 mmHg 82%
    07:00 +9°C° 0 mm 2 m/S 657 mmHg 79%
    08:00 +13°C° 0 mm 2 m/S 658 mmHg 69%
    09:00 +16°C° 0 mm 2 m/S 658 mmHg 59%
    10:00 +18°C° 0 mm 2 m/S 659 mmHg 49%
    11:00 +19°C° 0 mm 2 m/S 658 mmHg 46%
    12:00 +21°C° 0 mm 3 m/S 658 mmHg 42%
    13:00 +22°C° 0 mm 3 m/S 658 mmHg 39%
    14:00 +22°C° 0 mm 3 m/S 658 mmHg 40%
    15:00 +22°C° 0 mm 3 m/S 657 mmHg 41%
    16:00 +22°C° 0 mm 3 m/S 657 mmHg 42%
    17:00 +19°C° 0 mm 3 m/S 656 mmHg 50%
    18:00 +17°C° 0 mm 3 m/S 655 mmHg 58%
    19:00 +15°C° 0 mm 2 m/S 655 mmHg 65%
    20:00 +13°C° 0 mm 3 m/S 655 mmHg 65%
    21:00 +12°C° 0 mm 3 m/S 655 mmHg 65%
    22:00 +11°C° 0 mm 3 m/S 655 mmHg 65%
    23:00 +10°C° 0 mm 3 m/S 655 mmHg 71%

    30 April, Montag

    Zeit Temperatur Niederschläge Wind Luftdruck Luftfeuchtigkeit
    00:00 +9°C° 0 mm 3 m/S 655 mmHg 76%
    01:00 +8°C° 0 mm 3 m/S 655 mmHg 82%
    02:00 +8°C° 0,1 mm 3 m/S 655 mmHg 85%
    03:00 +8°C° 0,1 mm 2 m/S 655 mmHg 88%
    04:00 +7°C° 0,1 mm 2 m/S 655 mmHg 91%
    05:00 +5°C° 1,5 mm 3 m/S 655 mmHg 92%
    06:00 +4°C° 1,5 mm 3 m/S 655 mmHg 92%
    07:00 +3°C° 1,5 mm 4 m/S 656 mmHg 93%
    08:00 +3°C° 1,6 mm 3 m/S 656 mmHg 92%
    09:00 +3°C° 1,6 mm 3 m/S 657 mmHg 92%
    10:00 +3°C° 1,6 mm 3 m/S 657 mmHg 91%
    11:00 +4°C° 0,3 mm 3 m/S 658 mmHg 84%
    12:00 +7°C° 0,3 mm 2 m/S 659 mmHg 78%
    13:00 +8°C° 0,3 mm 2 m/S 659 mmHg 72%
    14:00 +9°C° 0 mm 2 m/S 659 mmHg 66%
    15:00 +10°C° 0 mm 2 m/S 659 mmHg 61%
    16:00 +12°C° 0 mm 2 m/S 660 mmHg 55%
    17:00 +9°C° 0,1 mm 2 m/S 659 mmHg 62%
    18:00 +9°C° 0,1 mm 1 m/S 659 mmHg 70%
    19:00 +8°C° 0,1 mm 1 m/S 659 mmHg 77%
    20:00 +7°C° 0,3 mm 1 m/S 659 mmHg 80%
    21:00 +6°C° 0,3 mm 1 m/S 660 mmHg 84%
    22:00 +5°C° 0,3 mm 1 m/S 660 mmHg 87%
    23:00 +5°C° 0,2 mm 1 m/S 660 mmHg 88%

    1 Mai, Dienstag

    Zeit Temperatur Niederschläge Wind Luftdruck Luftfeuchtigkeit
    00:00 +5°C° 0,2 mm 1 m/S 660 mmHg 89%
    01:00 +5°C° 0,2 mm 1 m/S 660 mmHg 91%
    02:00 +5°C° 0 mm 1 m/S 660 mmHg 91%
    03:00 +4°C° 0 mm 0 m/S 660 mmHg 91%
    04:00 +3°C° 0 mm 0 m/S 660 mmHg 92%
    05:00 +4°C° 0 mm 0 m/S 660 mmHg 89%
    06:00 +5°C° 0 mm 0 m/S 660 mmHg 86%
    07:00 +6°C° 0 mm 0 m/S 661 mmHg 83%
    08:00 +9°C° 0 mm 1 m/S 661 mmHg 75%
    09:00 +11°C° 0 mm 1 m/S 661 mmHg 67%
    10:00 +13°C° 0 mm 1 m/S 661 mmHg 59%
    11:00 +13°C° 0 mm 2 m/S 661 mmHg 56%
    12:00 +14°C° 0 mm 2 m/S 661 mmHg 54%
    13:00 +15°C° 0 mm 2 m/S 661 mmHg 51%
    14:00 +15°C° 0,1 mm 2 m/S 661 mmHg 54%
    15:00 +14°C° 0,1 mm 2 m/S 660 mmHg 57%
    16:00 +14°C° 0,1 mm 2 m/S 660 mmHg 60%
    17:00 +13°C° 0,1 mm 2 m/S 659 mmHg 68%
    18:00 +10°C° 0,1 mm 2 m/S 659 mmHg 76%
    19:00 +10°C° 0,1 mm 1 m/S 659 mmHg 84%
    20:00 +9°C° 0,1 mm 1 m/S 659 mmHg 86%
    21:00 +8°C° 0,1 mm 1 m/S 659 mmHg 88%
    22:00 +7°C° 0,1 mm 1 m/S 659 mmHg 90%
    23:00 +7°C° 0,1 mm 1 m/S 659 mmHg 90%
    Mehr zeigen